Regional Weather Roundup
Issued by NWS

Home | Current Version | Previous Version | Graphics & Text | Print | Product List | Glossary On
Versions: 1 2 3 4 5 6 7 8 9 10 11 12 13 14 15 16 17 18 19 20 21 22 23 24 25 26 27 28 29 30 31 32 33 34 35 36 37 38 39 40 41 42 43 44 45 46 47 48 49 50
000
ASUS45 KBOI 020810
RWRID

IDAHO REGIONAL WEATHER ROUNDUP
NATIONAL WEATHER SERVICE BOISE ID
200 AM MDT WED SEP 02 2015

NOTE: "FAIR" INDICATES FEW OR NO CLOUDS BELOW 12000 FEET
WITH NO SIGNIFICANT WEATHER AND/OR OBSTRUCTIONS TO VISIBILITY

IDZ012-014-020900-
SOUTHWEST IDAHO


CITY           SKY/WX    TMP DP  RH WIND       PRES   REMARKS
BOISE          PTCLDY    70  38  31 SE9       29.75S
CALDWELL       PTCLDY    57  43  58 N5        29.75R
MOUNTAIN HOME  PTCLDY    60  40  47 E3        29.76S
$$

IDZ016-017-020900-
SOUTHCENTRAL IDAHO


CITY           SKY/WX    TMP DP  RH WIND       PRES   REMARKS
BURLEY         CLEAR     52  45  77 SW7       29.85R
JEROME         CLEAR     63  38  39 SE5       29.85S
TWIN FALLS     CLEAR     69  31  24 S10       29.85S
$$

IDZ019>023-020900-
SOUTHEAST IDAHO


CITY           SKY/WX    TMP DP  RH WIND       PRES   REMARKS
IDAHO FALLS    CLEAR     62  43  49 S5        29.90S
POCATELLO      CLEAR     70  37  29 W14G20    29.87S
REXBURG        PTCLDY    60  41  49 CALM      29.91F
$$

IDZ006-010-011-018-031-032-020900-
CENTRAL IDAHO MOUNTAINS


CITY           SKY/WX    TMP DP  RH WIND       PRES   REMARKS
MCCALL         MOCLDY    52  39  61 CALM      29.86S
HAILEY         CLEAR     55  34  44 NW12      29.96S
STANLEY          N/A     46  28  49 SW3       29.99F
SALMON         PTCLDY    54  36  50 CALM      29.80S
CHALLIS        CLEAR     56  29  35 CALM      29.89R
$$

IDZ002-004-006-007-026-020900-
NORTHERN IDAHO


CITY           SKY/WX    TMP DP  RH WIND       PRES   REMARKS
LEWISTON       CLOUDY    67  36  31 S3        29.74R
LOWELL           N/A     57  52  83 NW3       29.77R
COEUR D`ALENE  CLOUDY    63  46  55 S10       29.74S
MULLAN PASS    CLOUDY    51  29  42 CALM      29.89S
$$



USA.gov is the U.S. government's official web portal to all federal, state and local government web resources and services.